Starlink 30036

operational
NORAD ID: 56692 Int'l Des: 2023-067 Owner: SPXS Country: US Constellation: starlink
LEOCIRCULAR

关于 Starlink 30036

正在加载描述...

实时位置

正在加载3D地球...

即将过境

高度历史

Altitude vs Time

uPlot chart will show altitude changes over time

两行轨道根数

1 56692U 23067E 25257.96897849 -.00000060 00000-0 10623-4 0 9990
2 56692 43.0021 149.5768 0001171 267.2848 92.7860 15.02537279128090
Epoch: Sep 14, 2025 • Age: 34 hours

当前状态

高度 562.1 km
速度 7.59 km/s
星下点 39.37°N, 71.49°E
发射日期 May 19, 2023
运行时间 2.3 years
类型 internet

技术详情

分类 Payload
质量 730.00 kg
干质量 700.00 kg
总质量 730.00 kg
长度 0.30 m
直径 4.10 m
跨度 29.00 m
形状 Box + pan
制造商 SPXS
平台类型 Starlink V2M
阶段状态 In Orbit
所有者/国家 SPXS/US

大型星座

Loading constellations...